When you browse on this site, cookies collect data to enhance your experience and personalize the content and advertising you see.
Visit our Privacy Policy to learn more. By continuing to use the site, you agree to this use of cookies and data.
  • în România
  • Lista ţărilor
  • Pe 7 zile
  • Temperatura apei
  • Hartă satelitară
  • Meteo pe hartă
  • Widget-uri
  • user-avatar
    Intrare

    Meteo pe oră la Cumaná

    Astăzi, 24 Iunie, Luni

    Timp Temperatura Precipitaţii Vânt Presiune Umiditate
    00:00 +26°C° 0 mm 2 m/s 753 mmHg 89%
    01:00 +26°C° 0 mm 2 m/s 753 mmHg 87%
    02:00 +25°C° 0 mm 1 m/s 752 mmHg 85%
    03:00 +26°C° 0 mm 1 m/s 752 mmHg 85%
    04:00 +26°C° 0 mm 1 m/s 752 mmHg 85%
    05:00 +26°C° 0 mm 1 m/s 752 mmHg 85%
    06:00 +27°C° 0 mm 1 m/s 752 mmHg 82%
    07:00 +29°C° 0 mm 1 m/s 753 mmHg 78%
    08:00 +30°C° 0 mm 1 m/s 753 mmHg 75%
    09:00 +31°C° 0 mm 2 m/s 753 mmHg 72%
    10:00 +32°C° 0 mm 2 m/s 753 mmHg 70%
    11:00 +34°C° 0 mm 3 m/s 753 mmHg 67%
    12:00 +33°C° 0.7 mm 3 m/s 753 mmHg 74%
    13:00 +32°C° 0.7 mm 4 m/s 752 mmHg 81%
    14:00 +30°C° 0.7 mm 4 m/s 751 mmHg 88%
    15:00 +30°C° 0.4 mm 5 m/s 751 mmHg 88%
    16:00 +30°C° 0.4 mm 5 m/s 751 mmHg 88%
    17:00 +30°C° 0.4 mm 6 m/s 750 mmHg 89%
    18:00 +29°C° 0 mm 6 m/s 751 mmHg 92%
    19:00 +28°C° 0 mm 5 m/s 751 mmHg 95%
    20:00 +27°C° 0 mm 5 m/s 752 mmHg 98%
    21:00 +26°C° 0 mm 5 m/s 752 mmHg 97%
    22:00 +26°C° 0 mm 5 m/s 752 mmHg 96%
    23:00 +26°C° 0 mm 4 m/s 753 mmHg 96%

    Mâine, 25 Iunie, Marţi

    Timp Temperatura Precipitaţii Vânt Presiune Umiditate
    00:00 +26°C° 0 mm 4 m/s 752 mmHg 94%
    01:00 +25°C° 0 mm 4 m/s 752 mmHg 93%
    02:00 +25°C° 0 mm 4 m/s 752 mmHg 92%
    03:00 +25°C° 0 mm 4 m/s 752 mmHg 90%
    04:00 +25°C° 0 mm 4 m/s 752 mmHg 89%
    05:00 +25°C° 0 mm 4 m/s 752 mmHg 88%
    06:00 +26°C° 0 mm 3 m/s 752 mmHg 84%
    07:00 +27°C° 0 mm 3 m/s 752 mmHg 81%
    08:00 +29°C° 0 mm 3 m/s 752 mmHg 77%
    09:00 +30°C° 0 mm 3 m/s 752 mmHg 73%
    10:00 +31°C° 0 mm 3 m/s 753 mmHg 68%
    11:00 +34°C° 0 mm 3 m/s 753 mmHg 64%
    12:00 +34°C° 0.1 mm 3 m/s 752 mmHg 64%
    13:00 +34°C° 0.1 mm 3 m/s 752 mmHg 65%
    14:00 +34°C° 0.1 mm 3 m/s 751 mmHg 65%
    15:00 +33°C° 0.1 mm 4 m/s 751 mmHg 70%
    16:00 +32°C° 0.1 mm 4 m/s 750 mmHg 76%
    17:00 +30°C° 0.1 mm 5 m/s 750 mmHg 81%
    18:00 +29°C° 0 mm 5 m/s 751 mmHg 87%
    19:00 +28°C° 0 mm 5 m/s 751 mmHg 92%
    20:00 +26°C° 0 mm 5 m/s 752 mmHg 98%
    21:00 +26°C° 0 mm 5 m/s 752 mmHg 97%
    22:00 +26°C° 0 mm 5 m/s 753 mmHg 96%
    23:00 +25°C° 0 mm 5 m/s 753 mmHg 96%

    Poimâine, 26 Iunie, Miercuri

    Timp Temperatura Precipitaţii Vânt Presiune Umiditate
    00:00 +25°C° 0 mm 5 m/s 753 mmHg 93%
    01:00 +25°C° 0 mm 4 m/s 753 mmHg 91%
    02:00 +25°C° 0 mm 4 m/s 752 mmHg 89%
    03:00 +23°C° 0 mm 4 m/s 752 mmHg 88%
    04:00 +23°C° 0 mm 4 m/s 752 mmHg 86%
    05:00 +23°C° 0 mm 4 m/s 752 mmHg 84%
    06:00 +26°C° 0 mm 3 m/s 753 mmHg 80%
    07:00 +27°C° 0 mm 3 m/s 753 mmHg 75%
    08:00 +29°C° 0 mm 3 m/s 753 mmHg 70%
    09:00 +31°C° 0 mm 3 m/s 753 mmHg 65%
    10:00 +33°C° 0 mm 4 m/s 753 mmHg 59%
    11:00 +35°C° 0 mm 4 m/s 753 mmHg 53%
    12:00 +35°C° 0 mm 5 m/s 753 mmHg 53%
    13:00 +35°C° 0 mm 6 m/s 752 mmHg 53%
    14:00 +35°C° 0 mm 6 m/s 752 mmHg 53%
    15:00 +35°C° 0 mm 7 m/s 751 mmHg 58%
    16:00 +34°C° 0 mm 7 m/s 751 mmHg 62%
    17:00 +33°C° 0 mm 7 m/s 750 mmHg 66%
    18:00 +30°C° 0 mm 6 m/s 751 mmHg 76%
    19:00 +28°C° 0 mm 6 m/s 751 mmHg 85%
    20:00 +26°C° 0 mm 6 m/s 751 mmHg 95%
    21:00 +26°C° 0 mm 5 m/s 752 mmHg 93%
    22:00 +25°C° 0 mm 5 m/s 752 mmHg 92%
    23:00 +25°C° 0 mm 5 m/s 753 mmHg 91%

    27 Iunie, Joi

    Timp Temperatura Precipitaţii Vânt Presiune Umiditate
    00:00 +25°C° 0 mm 4 m/s 752 mmHg 88%
    01:00 +25°C° 0 mm 4 m/s 752 mmHg 85%
    02:00 +25°C° 0 mm 4 m/s 752 mmHg 83%
    03:00 +25°C° 0 mm 4 m/s 752 mmHg 83%
    04:00 +25°C° 0 mm 4 m/s 752 mmHg 84%
    05:00 +25°C° 0 mm 3 m/s 752 mmHg 84%
    06:00 +26°C° 0 mm 3 m/s 752 mmHg 79%
    07:00 +28°C° 0 mm 3 m/s 752 mmHg 74%
    08:00 +29°C° 0 mm 3 m/s 753 mmHg 69%
    09:00 +31°C° 0 mm 3 m/s 753 mmHg 63%
    10:00 +33°C° 0 mm 3 m/s 753 mmHg 57%
    11:00 +34°C° 0 mm 4 m/s 753 mmHg 51%
    12:00 +34°C° 0 mm 4 m/s 752 mmHg 54%
    13:00 +34°C° 0 mm 4 m/s 752 mmHg 56%
    14:00 +34°C° 0 mm 5 m/s 751 mmHg 59%
    15:00 +33°C° 0.1 mm 5 m/s 751 mmHg 66%
    16:00 +32°C° 0.1 mm 6 m/s 750 mmHg 72%
    17:00 +30°C° 0.1 mm 6 m/s 750 mmHg 79%
    18:00 +29°C° 0 mm 6 m/s 750 mmHg 84%
    19:00 +28°C° 0 mm 6 m/s 751 mmHg 90%
    20:00 +26°C° 0 mm 7 m/s 751 mmHg 95%
    21:00 +26°C° 0 mm 6 m/s 752 mmHg 94%
    22:00 +26°C° 0 mm 6 m/s 752 mmHg 92%
    23:00 +24°C° 0 mm 6 m/s 753 mmHg 90%

    28 Iunie, Vineri

    Timp Temperatura Precipitaţii Vânt Presiune Umiditate
    00:00 +25°C° 0 mm 5 m/s 753 mmHg 88%
    01:00 +25°C° 0 mm 5 m/s 752 mmHg 85%
    02:00 +25°C° 0 mm 5 m/s 752 mmHg 83%
    03:00 +25°C° 0.2 mm 4 m/s 752 mmHg 83%
    04:00 +24°C° 0.2 mm 3 m/s 752 mmHg 84%
    05:00 +24°C° 0.2 mm 3 m/s 752 mmHg 85%
    06:00 +25°C° 0.7 mm 2 m/s 752 mmHg 85%
    07:00 +27°C° 0.7 mm 2 m/s 752 mmHg 86%
    08:00 +28°C° 0.7 mm 2 m/s 753 mmHg 86%
    09:00 +29°C° 0.2 mm 2 m/s 753 mmHg 80%
    10:00 +31°C° 0.2 mm 2 m/s 753 mmHg 75%
    11:00 +32°C° 0.2 mm 2 m/s 753 mmHg 69%
    12:00 +31°C° 0.8 mm 2 m/s 753 mmHg 75%
    13:00 +30°C° 0.8 mm 3 m/s 752 mmHg 81%
    14:00 +30°C° 0.8 mm 3 m/s 752 mmHg 86%
    15:00 +29°C° 0.9 mm 4 m/s 751 mmHg 89%
    16:00 +29°C° 0.9 mm 5 m/s 751 mmHg 91%
    17:00 +28°C° 0.9 mm 6 m/s 751 mmHg 93%
    18:00 +28°C° 0.1 mm 6 m/s 751 mmHg 95%
    19:00 +27°C° 0.1 mm 6 m/s 752 mmHg 96%
    20:00 +27°C° 0.1 mm 6 m/s 752 mmHg 97%
    21:00 +26°C° 0 mm 5 m/s 752 mmHg 97%
    22:00 +26°C° 0 mm 5 m/s 753 mmHg 96%
    23:00 +26°C° 0 mm 5 m/s 753 mmHg 95%

    29 Iunie, Sâmbătă

    Timp Temperatura Precipitaţii Vânt Presiune Umiditate
    00:00 +26°C° 0 mm 4 m/s 752 mmHg 95%
    01:00 +26°C° 0 mm 4 m/s 752 mmHg 94%
    02:00 +26°C° 0 mm 4 m/s 751 mmHg 94%
    03:00 +25°C° 0 mm 3 m/s 751 mmHg 94%
    04:00 +25°C° 0 mm 3 m/s 751 mmHg 93%
    05:00 +25°C° 0 mm 3 m/s 751 mmHg 93%
    06:00 +26°C° 0 mm 3 m/s 752 mmHg 90%
    07:00 +28°C° 0 mm 3 m/s 752 mmHg 87%
    08:00 +29°C° 0 mm 3 m/s 752 mmHg 84%
    09:00 +30°C° 0.1 mm 4 m/s 752 mmHg 80%
    10:00 +32°C° 0.1 mm 4 m/s 752 mmHg 76%
    11:00 +33°C° 0.1 mm 5 m/s 753 mmHg 71%
    12:00 +33°C° 0.2 mm 6 m/s 752 mmHg 71%
    13:00 +34°C° 0.2 mm 6 m/s 751 mmHg 70%
    14:00 +34°C° 0.2 mm 7 m/s 751 mmHg 70%
    15:00 +34°C° 0.1 mm 7 m/s 750 mmHg 71%
    16:00 +33°C° 0.1 mm 7 m/s 750 mmHg 72%
    17:00 +33°C° 0.1 mm 7 m/s 750 mmHg 73%
    18:00 +30°C° 0 mm 7 m/s 750 mmHg 80%
    19:00 +28°C° 0 mm 7 m/s 751 mmHg 87%
    20:00 +26°C° 0 mm 6 m/s 751 mmHg 94%
    21:00 +26°C° 0 mm 6 m/s 752 mmHg 93%
    22:00 +26°C° 0 mm 5 m/s 752 mmHg 93%
    23:00 +26°C° 0 mm 5 m/s 753 mmHg 93%
    Arată mai mult